TimeCST,TemperatureF,Dew PointF,Humidity,Sea Level PressureIn,VisibilityMPH,Wind Direction,Wind SpeedMPH,Gust SpeedMPH,PrecipitationIn,Events,Conditions,WindDirDegrees,DateUTC
12:14 AM,26.6,26.6,100,29.94,4.0,ESE,6.9,-,N/A,Snow,Light Snow,110,2013-03-05 06:14:00
12:34 AM,26.6,26.6,100,29.94,3.0,ESE,6.9,-,N/A,Snow,Light Snow,110,2013-03-05 06:34:00
12:54 AM,26.6,26.6,100,29.94,1.5,ESE,6.9,-,0.01,Snow,Light Snow,110,2013-03-05 06:54:00
1:14 AM,26.6,26.6,100,29.94,1.0,SE,4.6,-,0.01,Snow,Snow,130,2013-03-05 07:14:00
1:34 AM,26.6,26.6,100,29.94,1.0,ESE,3.5,-,0.02,Snow,Light Snow,120,2013-03-05 07:34:00
1:54 AM,26.6,26.6,100,29.93,1.2,East,3.5,-,N/A,Snow,Light Snow,100,2013-03-05 07:54:00
2:14 AM,26.6,26.6,100,29.93,0.8,Calm,Calm,-,0.01,Snow,Snow,0,2013-03-05 08:14:00
2:34 AM,26.6,26.6,100,29.92,0.5,Calm,Calm,-,0.02,Snow,Heavy Snow,0,2013-03-05 08:34:00
2:54 AM,26.6,26.6,100,29.92,1.0,Calm,Calm,-,0.01,Snow,Light Snow,0,2013-03-05 08:54:00
3:14 AM,26.6,26.6,100,29.92,0.8,Calm,Calm,-,0.03,Snow,Snow,0,2013-03-05 09:14:00
3:34 AM,26.6,26.6,100,29.92,1.0,Calm,Calm,-,0.04,,Overcast,0,2013-03-05 09:34:00
3:54 AM,26.6,26.6,100,29.92,1.2,Calm,Calm,-,N/A,Snow,Light Snow,0,2013-03-05 09:54:00
4:14 AM,26.6,26.6,100,29.92,1.0,Calm,Calm,-,0.01,Snow,Light Snow,0,2013-03-05 10:14:00
4:34 AM,26.6,26.6,100,29.92,0.8,Calm,Calm,-,0.02,Snow,Snow,0,2013-03-05 10:34:00
4:54 AM,26.6,26.6,100,29.92,1.0,ESE,3.5,-,N/A,Snow,Snow,110,2013-03-05 10:54:00
5:14 AM,26.6,26.6,100,29.92,1.2,ESE,3.5,-,0.01,Snow,Light Snow,110,2013-03-05 11:14:00
5:34 AM,26.6,26.6,100,29.92,1.8,ESE,3.5,-,0.02,Snow,Light Snow,110,2013-03-05 11:34:00
5:54 AM,26.6,26.6,100,29.92,1.2,Calm,Calm,-,N/A,Snow,Light Snow,0,2013-03-05 11:54:00
6:14 AM,26.6,26.6,100,29.93,1.0,SE,3.5,-,N/A,Snow,Snow,140,2013-03-05 12:14:00
7:14 AM,26.6,26.6,100,29.93,1.0,Calm,Calm,-,0.01,Snow,Light Snow,0,2013-03-05 13:14:00
7:34 AM,26.6,26.6,100,29.93,0.8,Calm,Calm,-,0.01,,Overcast,0,2013-03-05 13:34:00
7:54 AM,26.6,26.6,100,29.93,1.0,Calm,Calm,-,0.01,Snow,Light Snow,0,2013-03-05 13:54:00
8:14 AM,26.6,26.6,100,29.93,1.0,Calm,Calm,-,0.01,Snow,Light Snow,0,2013-03-05 14:14:00
8:34 AM,26.6,26.6,100,29.93,1.2,Calm,Calm,-,0.01,Snow,Light Snow,0,2013-03-05 14:34:00
8:54 AM,26.6,26.6,100,29.94,1.0,Calm,Calm,-,0.01,Snow,Light Snow,0,2013-03-05 14:54:00
9:13 AM,28.4,26.6,93,29.94,1.0,Calm,Calm,-,0.01,Snow,Light Snow,0,2013-03-05 15:13:00
9:34 AM,26.6,26.6,100,29.94,1.0,Calm,Calm,-,0.01,Snow,Light Snow,0,2013-03-05 15:34:00
9:54 AM,28.4,26.6,93,29.95,0.8,North,3.5,-,N/A,Snow,Light Snow,350,2013-03-05 15:54:00
10:13 AM,28.4,26.6,93,29.95,1.2,NE,3.5,-,0.01,Snow,Light Snow,40,2013-03-05 16:13:00
10:34 AM,28.4,26.6,93,29.95,1.0,NE,6.9,-,0.01,Snow,Light Snow,40,2013-03-05 16:34:00
10:54 AM,28.4,26.6,93,29.95,1.2,NNE,9.2,-,N/A,Snow,Light Snow,30,2013-03-05 16:54:00
11:13 AM,28.4,26.6,93,29.96,1.5,NE,9.2,-,N/A,Snow,Light Snow,40,2013-03-05 17:13:00
11:34 AM,28.4,26.6,93,29.96,2.0,NNE,9.2,-,N/A,,Mostly Cloudy,20,2013-03-05 17:34:00
11:54 AM,28.4,26.6,93,29.97,4.0,NNE,10.4,-,N/A,,Mostly Cloudy,20,2013-03-05 17:54:00
12:13 PM,28.4,26.6,93,29.98,5.0,North,11.5,-,N/A,,Mostly Cloudy,10,2013-03-05 18:13:00
12:34 PM,30.2,26.6,86,29.98,7.0,North,11.5,-,N/A,,Scattered Clouds,360,2013-03-05 18:34:00
12:54 PM,30.2,26.6,86,29.99,7.0,North,11.5,-,N/A,,Mostly Cloudy,360,2013-03-05 18:54:00
1:14 PM,30.2,26.6,86,30.00,7.0,North,10.4,-,N/A,,Mostly Cloudy,350,2013-03-05 19:14:00
1:34 PM,28.4,26.6,93,30.00,7.0,North,11.5,18.4,N/A,,Mostly Cloudy,360,2013-03-05 19:34:00
1:54 PM,28.4,24.8,86,30.00,10.0,North,13.8,-,N/A,,Overcast,10,2013-03-05 19:54:00
2:14 PM,28.4,24.8,86,30.01,10.0,North,13.8,-,N/A,,Overcast,360,2013-03-05 20:14:00
2:34 PM,28.4,24.8,86,30.02,10.0,North,15.0,-,N/A,,Overcast,350,2013-03-05 20:34:00
2:54 PM,30.2,24.8,80,30.03,10.0,North,11.5,18.4,N/A,,Overcast,350,2013-03-05 20:54:00
3:14 PM,28.4,24.8,86,30.05,10.0,NNW,11.5,19.6,N/A,,Overcast,340,2013-03-05 21:14:00
3:34 PM,28.4,24.8,86,30.05,10.0,NNW,15.0,-,N/A,,Overcast,340,2013-03-05 21:34:00
3:54 PM,28.4,24.8,86,30.06,10.0,North,11.5,-,N/A,,Overcast,350,2013-03-05 21:54:00
4:14 PM,28.4,24.8,86,30.07,10.0,NNW,12.7,19.6,N/A,,Overcast,340,2013-03-05 22:14:00
4:34 PM,28.4,24.8,86,30.09,10.0,NNW,11.5,-,N/A,,Overcast,330,2013-03-05 22:34:00
4:54 PM,28.4,24.8,86,30.09,10.0,NNW,12.7,-,N/A,,Overcast,340,2013-03-05 22:54:00
5:14 PM,28.4,24.8,86,30.11,7.0,NNW,10.4,-,N/A,,Overcast,340,2013-03-05 23:14:00
5:34 PM,28.4,24.8,86,30.11,5.0,NNW,10.4,20.7,N/A,Snow,Light Snow,330,2013-03-05 23:34:00
5:54 PM,28.4,24.8,86,30.12,4.0,NNW,11.5,16.1,N/A,Snow,Light Snow,330,2013-03-05 23:54:00
6:14 PM,26.6,24.8,93,30.13,7.0,NNW,11.5,16.1,N/A,Snow,Light Snow,340,2013-03-06 00:14:00
6:34 PM,26.6,24.8,93,30.15,7.0,NNW,10.4,16.1,N/A,Snow,Light Snow,330,2013-03-06 00:34:00
6:54 PM,26.6,24.8,93,30.16,5.0,NW,8.1,-,N/A,Snow,Light Snow,320,2013-03-06 00:54:00
7:14 PM,26.6,24.8,93,30.16,5.0,NNW,10.4,-,N/A,Snow,Light Snow,340,2013-03-06 01:14:00
7:34 PM,26.6,26.6,100,30.16,5.0,NNW,10.4,-,N/A,Snow,Light Snow,330,2013-03-06 01:34:00
7:53 PM,26.6,26.6,100,30.17,7.0,NNW,10.4,17.3,N/A,Snow,Light Snow,340,2013-03-06 01:53:00
8:14 PM,26.6,24.8,93,30.18,10.0,NNW,9.2,-,N/A,,Mostly Cloudy,330,2013-03-06 02:14:00
8:33 PM,24.8,23.0,93,30.18,10.0,NNW,8.1,-,N/A,,Scattered Clouds,330,2013-03-06 02:33:00
8:54 PM,26.6,24.8,93,30.19,10.0,NNW,8.1,-,N/A,,Mostly Cloudy,340,2013-03-06 02:54:00
9:14 PM,26.6,23.0,86,30.20,10.0,NNW,10.4,-,N/A,,Overcast,340,2013-03-06 03:14:00
9:34 PM,26.6,23.0,86,30.21,10.0,NW,9.2,-,N/A,,Overcast,320,2013-03-06 03:34:00
9:54 PM,26.6,21.2,80,30.22,10.0,NNW,8.1,-,N/A,,Overcast,340,2013-03-06 03:54:00
10:14 PM,26.6,21.2,80,30.22,10.0,NNW,8.1,-,N/A,,Overcast,330,2013-03-06 04:14:00
10:34 PM,26.6,23.0,86,30.21,10.0,NNW,8.1,-,N/A,,Overcast,340,2013-03-06 04:34:00
10:54 PM,26.6,23.0,86,30.22,10.0,NNW,8.1,-,N/A,,Overcast,330,2013-03-06 04:54:00
11:14 PM,24.8,23.0,93,30.23,10.0,NNW,9.2,-,N/A,,Overcast,330,2013-03-06 05:14:00
11:34 PM,24.8,23.0,93,30.25,10.0,NW,6.9,-,N/A,,Overcast,320,2013-03-06 05:34:00
11:54 PM,24.8,21.2,86,30.25,10.0,NW,8.1,-,N/A,,Mostly Cloudy,320,2013-03-06 05:54:00